Location: Unspecified
(43.4680°N, 87.1740°E)
Time: 21:52:34
(UTC+00:00)

Cosmos 2227 Rocket - Pass Details

Date: 17 January 2020
Orbit: 840 x 844 km, 71.0° (Epoch: 27 February)

Event Time Altitude Azimuth Distance (km) Brightness Sun altitude
Rises 14:29:31 0° 228° (SW) 3,386 5.8 -37.2°
Reaches altitude 10° 14:32:08 10° 236° (SW) 2,455 5.1 -37.6°
Enters shadow 14:35:19 28° 262° (W) 1,518 3.9 -38.2°
